[[{"header":{"parameterUnit":"m.s-1","parameterCategory":1,"la1":30.2991,"la2":30.254,"lo1":-89.0895,"lo2":-89.0444,"dy":0.0017,"dx":0.0017,"nx":28,"ny":28,"refTime":"2025-07-23T03:00:00:Z","depth":0,"parameterNumber":2,"parameterNumberName":"U-component_of_WINDS"},"data":[0,0,0,0,0,0,0,0,0,0,0,0,0,0,0,0,0,0,0,0,0,0,0,0,0,0,0,0,0,0,0,0,0,0,0,0,0,0,0,0,0,0,0,0,0,0,0,0,0,0,0,0,0,0,0,0,0,0,-2.9059,-2.906,0,-2.9102,-2.9103,-2.9103,-2.9171,-2.9172,-2.9173,-2.9174,-2.9213,-2.9213,-2.9213,0,0,0,0,0,0,0,0,0,0,0,0,0,-2.9031,-2.9031,-2.9059,-2.906,-2.9061,-2.9102,-2.9103,-2.9104,-2.9171,-2.9172,-2.9174,-2.9175,-2.9213,-2.9213,-2.9213,0,0,0,0,0,0,0,0,0,0,0,0,0,-2.9056,-2.9031,-2.9059,-2.9099,-2.9103,-2.9102,-2.9103,-2.9104,-2.917,-2.9172,-2.9174,-2.9176,-2.9213,-2.9213,-2.9213,-2.9175,0,0,-2.9212,-2.9212,0,0,0,0,0,0,0,0,-2.9054,-2.9057,-2.9093,-2.9096,-2.9101,-2.9133,-2.9107,-2.9127,-2.917,-2.9145,-2.9175,-2.9177,-2.9185,-2.9187,-2.9191,-2.9177,-2.9178,-2.9212,-2.9212,-2.9212,-2.9212,0,0,0,0,0,0,0,-2.9052,-2.9055,-2.9076,-2.9093,-2.9098,-2.9114,-2.9119,-2.9111,-2.9154,-2.9147,-2.9152,-2.9156,-2.9187,-2.9191,-2.9192,-2.9179,-2.9212,-2.9212,-2.9212,-2.9212,-2.9135,-2.9134,0,0,0,0,0,0,-2.9045,-2.9053,-2.9075,-2.9078,-2.9082,-2.9113,-2.9119,-2.9121,-2.9154,-2.9161,-2.9155,-2.9159,-2.919,-2.9192,-2.9194,-2.9151,-2.9212,-2.9212,-2.9212,-2.9137,-2.9135,-2.9133,0,0,0,0,0,0,-2.9045,-2.9047,-2.9073,-2.9067,-2.9071,-2.9111,-2.9113,-2.9121,-2.9125,-2.916,-2.9167,-2.9151,-2.9192,-2.9194,-2.918,-2.9153,-2.9212,-2.9212,-2.914,-2.9137,-2.9134,-2.9065,0,0,0,0,0,0,-2.9043,-2.9046,-2.9033,-2.9066,-2.9072,-2.9059,-2.9112,-2.912,-2.9125,-2.9131,-2.9158,-2.9165,-2.9194,-2.9179,-2.9179,-2.9154,-2.9212,-2.9142,-2.9138,-2.9135,-2.907,-2.906,-2.9052,0,0,0,0,0,-2.9042,-2.901,-2.9032,-2.9034,-2.9056,-2.9057,-2.906,-2.9096,-2.9122,-2.9109,-2.9132,-2.9164,-2.9157,-2.9177,-2.9178,-2.9152,-2.9144,-2.9139,-2.9135,-2.9074,-2.9062,-2.9052,0,0,0,0,0,0,-2.8971,-2.9015,-2.904,-2.9018,-2.9034,-2.9069,-2.9053,-2.9082,-2.9089,-2.9094,-2.9137,-2.9142,-2.9122,-2.9136,-2.9158,-2.9117,-2.9155,-2.9151,-2.9108,-2.9097,-2.9089,-2.9085,-2.9212,0,0,0,0,0,-2.8953,-2.8952,-2.8991,-2.8968,-2.8975,-2.9012,-2.9014,-2.904,-2.9057,-2.9064,-2.9086,-2.9099,-2.9101,-2.91,-2.9103,-2.9073,-2.9079,-2.9056,-2.9047,-2.9039,-2.9034,-2.9018,-2.9008,-2.9119,-2.9119,-2.9119,0,0,-2.8915,-2.8939,-2.8936,-2.8954,-2.8969,-2.8965,-2.9017,-2.9011,-2.9008,-2.9062,-2.905,-2.9066,-2.9085,-2.9062,-2.9053,-2.9073,-2.9005,-2.9034,-2.9027,-2.9026,-2.9013,-2.9002,-2.8993,-2.9116,-2.9116,-2.9117,0,0,-2.8844,-2.8863,-2.8846,-2.8861,-2.8884,-2.891,-2.8906,-2.8937,-2.895,-2.8939,-2.898,-2.8977,-2.8978,-2.8989,-2.8995,-2.893,-2.8959,-2.893,-2.8882,-2.8866,-2.8858,-2.885,-2.8826,-2.8817,-2.8925,-2.8925,-2.8925,0,-2.8793,-2.8791,-2.8833,-2.8825,-2.8831,-2.8883,-2.8865,-2.8877,-2.8899,-2.8901,-2.8924,-2.8927,-2.8943,-2.8923,-2.8907,-2.8911,-2.8906,-2.8926,-2.8856,-2.8849,-2.8842,-2.8819,-2.881,-2.8921,-2.8922,-2.8922,-2.8922,0,-2.8727,-2.8725,-2.8709,-2.8731,-2.8736,-2.8722,-2.8761,-2.8761,-2.8787,-2.881,-2.8797,-2.8819,-2.8827,-2.8825,-2.8849,-2.8808,-2.882,-2.8849,-2.8887,-2.8827,-2.8806,-2.8798,-2.8916,-2.8917,-2.8918,-2.8919,0,0,-2.861,-2.8658,-2.865,-2.8661,-2.8692,-2.869,-2.8679,-2.8689,-2.8687,-2.8701,-2.8692,-2.8693,-2.872,-2.8727,-2.8753,-2.874,-2.8686,-2.877,-2.8771,-2.8753,-2.864,-2.8617,-2.8607,-2.8706,-2.8705,-2.8704,-2.8638,0,-2.8544,-2.853,-2.8568,-2.8543,-2.8541,-2.8591,-2.8581,-2.8598,-2.8619,-2.8619,-2.8643,-2.8642,-2.8679,-2.8683,-2.8672,-2.8695,-2.8663,-2.87,-2.8696,-2.8696,-2.8688,-2.8596,-2.8572,-2.8509,-2.8631,-2.8629,-2.8628,0,-2.8464,-2.8476,-2.8452,-2.8485,-2.8485,-2.8476,-2.8489,-2.8489,-2.8509,-2.8525,-2.8533,-2.8565,-2.8556,-2.8595,-2.8581,-2.8605,-2.8606,-2.8617,-2.8615,-2.8615,-2.8657,-2.8591,-2.849,-2.848,-2.8616,-2.8617,-2.8618,0,-2.8379,-2.839,-2.8377,-2.8385,-2.8422,-2.8415,-2.843,-2.8452,-2.8456,-2.8466,-2.8469,-2.8477,-2.8481,-2.8486,-2.8519,-2.8545,-2.8501,-2.8543,-2.8512,-2.8511,-2.8499,-2.8499,-2.8395,-2.8502,-2.8503,-2.8503,-2.8503,0,-2.83,-2.8283,-2.8339,-2.8331,-2.8313,-2.8357,-2.8337,-2.8357,-2.8377,-2.8372,-2.8415,-2.8409,-2.8454,-2.8453,-2.8479,-2.8463,-2.8464,-2.8476,-2.8483,-2.8471,-2.847,-2.8471,-2.8476,-2.85,-2.8501,-2.8501,-2.8502,0,-2.8201,-2.8239,-2.8228,-2.8266,-2.8275,-2.826,-2.8291,-2.8284,-2.831,-2.8303,-2.8304,-2.8342,-2.8343,-2.8377,-2.8385,-2.8402,-2.8375,-2.839,-2.8368,-2.8373,-2.834,-2.8342,-2.8231,-2.8219,-2.8335,-2.8334,-2.8333,0,-2.8148,-2.8136,-2.8174,-2.8175,-2.8189,-2.819,-2.8194,-2.8237,-2.824,-2.8262,-2.8252,-2.8257,-2.8263,-2.8262,-2.8289,-2.8295,-2.831,-2.8271,-2.8311,-2.83,-2.8308,-2.8308,-2.8306,-2.8262,-2.826,-2.8259,-2.8258,0,-2.8048,-2.8068,-2.8074,-2.8087,-2.8092,-2.8104,-2.8118,-2.8116,-2.8163,-2.8163,-2.8166,-2.8171,-2.818,-2.8184,-2.8195,-2.8209,-2.824,-2.8246,-2.8239,-2.8226,-2.8214,-2.8219,-2.8344,-2.8248,-2.8249,-2.825,-2.825,-2.8251,-2.7969,-2.7962,-2.7987,-2.7993,-2.8009,-2.8021,-2.8017,-2.8043,-2.8046,-2.8058,-2.8083,-2.8081,-2.8102,-2.812,-2.8131,-2.813,-2.8149,-2.8139,-2.8137,-2.8133,-2.8126,-2.8216,-2.8132,-2.8132,-2.8133,-2.8133,-2.8133,0,-2.7871,-2.7891,-2.7896,-2.7915,-2.792,-2.7953,-2.797,-2.7971,-2.797,-2.7987,-2.7993,-2.7996,-2.8,-2.8029,-2.8036,-2.8029,-2.8043,-2.8029,-2.8029,-2.8031,-2.8109,-2.8114,-2.8017,-2.8017,-2.8017,-2.8017,-2.8017,-2.8017,-2.782,-2.7809,-2.7831,-2.7828,-2.7847,-2.7848,-2.7855,-2.7866,-2.7881,-2.7883,-2.7887,-2.7907,-2.7928,-2.7937,-2.7942,-2.795,-2.795,-2.793,-2.7943,-2.8015,-2.8026,-2.8037,-2.8041,-2.793,-2.793,-2.7865,-2.7865,-2.7864]},{"header":{"parameterUnit":"m.s-1","parameterCategory":1,"la1":30.2991,"la2":30.254,"lo1":-89.0895,"lo2":-89.0444,"dy":0.0017,"dx":0.0017,"nx":28,"ny":28,"refTime":"2025-07-23T03:00:00:Z","depth":0,"parameterNumber":3,"parameterNumberName":"V-component_of_WINDS"},"data":[0,0,0,0,0,0,0,0,0,0,0,0,0,0,0,0,0,0,0,0,0,0,0,0,0,0,0,0,0,0,0,0,0,0,0,0,0,0,0,0,0,0,0,0,0,0,0,0,0,0,0,0,0,0,0,0,0,0,5.2975,5.2981,0,5.3506,5.3512,5.3518,5.3622,5.3618,5.3614,5.361,5.413,5.4147,5.4165,0,0,0,0,0,0,0,0,0,0,0,0,0,5.2023,5.204,5.2974,5.2981,5.2988,5.3505,5.3513,5.352,5.3623,5.3618,5.3613,5.3609,5.4124,5.4145,5.4166,0,0,0,0,0,0,0,0,0,0,0,0,0,5.2483,5.2046,5.2973,5.3102,5.3119,5.3504,5.3513,5.3522,5.3624,5.3618,5.3612,5.3606,5.4117,5.4143,5.4169,5.4455,0,0,5.425,5.4261,0,0,0,0,0,0,0,0,5.2457,5.2518,5.3077,5.3094,5.3114,5.3493,5.3368,5.3834,5.3626,5.3432,5.361,5.3603,5.3921,5.3963,5.4076,5.4479,5.4502,5.4252,5.4268,5.428,5.4287,0,0,0,0,0,0,0,5.2425,5.2495,5.3184,5.3085,5.3107,5.3125,5.3184,5.3457,5.3703,5.3448,5.3457,5.352,5.393,5.405,5.4089,5.4509,5.4252,5.4275,5.4291,5.4302,5.5169,5.5176,0,0,0,0,0,0,5.2374,5.2468,5.3167,5.32,5.2764,5.3147,5.3213,5.3377,5.3701,5.3745,5.3525,5.3523,5.4008,5.4058,5.4107,5.4463,5.428,5.4304,5.432,5.5162,5.5171,5.5178,0,0,0,0,0,0,5.2353,5.2435,5.3146,5.2837,5.2929,5.3171,5.3353,5.339,5.3511,5.3759,5.3801,5.3604,5.4005,5.407,5.4369,5.4482,5.4316,5.434,5.5153,5.5165,5.5174,5.5176,0,0,0,0,0,0,5.2325,5.2427,5.2545,5.2839,5.2945,5.3407,5.3361,5.3405,5.3559,5.3562,5.3845,5.3885,5.4005,5.4329,5.4395,5.4516,5.4361,5.5144,5.5158,5.5171,5.5167,5.5185,5.5201,0,0,0,0,0,5.2291,5.252,5.2551,5.2634,5.3099,5.3413,5.3473,5.3614,5.3568,5.3684,5.3843,5.3876,5.4458,5.4358,5.4434,5.4564,5.5138,5.5154,5.517,5.5159,5.5182,5.5201,0,0,0,0,0,0,5.2225,5.2561,5.2599,5.2931,5.3144,5.3431,5.3582,5.3633,5.3857,5.3849,5.4006,5.4068,5.4357,5.449,5.4373,5.4855,5.4794,5.4826,5.476,5.4784,5.48,5.4763,5.4383,0,0,0,0,0,5.225,5.2486,5.2763,5.3028,5.3134,5.3339,5.3481,5.3572,5.3795,5.3883,5.4063,5.4271,5.4501,5.4649,5.4874,5.5185,5.5245,5.531,5.5327,5.534,5.5366,5.5537,5.5568,5.5231,5.5231,5.5231,0,0,5.2302,5.2515,5.2653,5.3021,5.3197,5.3429,5.3414,5.3661,5.3833,5.3918,5.4214,5.4352,5.4593,5.4899,5.5043,5.5018,5.5472,5.5361,5.537,5.5389,5.5557,5.5588,5.5616,5.5242,5.524,5.5238,0,0,5.2518,5.2704,5.2947,5.3123,5.3391,5.3526,5.3583,5.3863,5.3961,5.4261,5.4329,5.4529,5.4923,5.5092,5.5229,5.5504,5.5541,5.5571,5.5662,5.5826,5.5853,5.5877,5.5973,5.6006,5.5596,5.5596,5.5596,0,5.2547,5.291,5.3061,5.3308,5.3465,5.3559,5.38,5.3961,5.4284,5.4387,5.4356,5.4852,5.502,5.5366,5.5433,5.5541,5.5606,5.5542,5.5838,5.5864,5.5889,5.5982,5.6018,5.5598,5.5598,5.5598,5.5597,0,5.2932,5.3181,5.3342,5.3662,5.3836,5.4078,5.4258,5.4414,5.4487,5.4621,5.4921,5.5128,5.5395,5.5483,5.5553,5.5837,5.5813,5.5808,5.575,5.592,5.6011,5.6048,5.5601,5.56,5.56,5.5599,0,0,5.3124,5.3525,5.3581,5.3726,5.4027,5.4218,5.4459,5.4729,5.4859,5.5076,5.5279,5.5608,5.5605,5.576,5.5849,5.5993,5.6195,5.5971,5.5978,5.6005,5.6516,5.6519,5.6558,5.622,5.6228,5.6234,5.6495,0,5.3376,5.3823,5.3964,5.4332,5.4561,5.465,5.4859,5.5061,5.5191,5.5397,5.5536,5.5768,5.5748,5.5842,5.5988,5.614,5.6299,5.6122,5.6404,5.6412,5.6344,5.6606,5.6611,5.6849,5.6531,5.6538,5.6542,0,5.3732,5.3964,5.4358,5.4628,5.4729,5.4916,5.5173,5.5371,5.5597,5.5681,5.5854,5.5931,5.6177,5.6103,5.6441,5.6317,5.6439,5.6529,5.6542,5.6575,5.6489,5.6645,5.6928,5.6963,5.6599,5.6595,5.659,0,5.3832,5.4242,5.4531,5.4651,5.4974,5.5103,5.5241,5.5463,5.5614,5.5834,5.5933,5.6174,5.6307,5.6488,5.6624,5.6558,5.6949,5.6887,5.702,5.7016,5.71,5.7093,5.7406,5.7176,5.7176,5.7175,5.7174,0,5.41,5.4337,5.4581,5.4758,5.5023,5.5178,5.5432,5.5574,5.577,5.5969,5.6056,5.6239,5.6409,5.6612,5.6718,5.698,5.7038,5.7107,5.7133,5.7101,5.7092,5.7184,5.7171,5.7185,5.7183,5.7181,5.7179,0,5.4259,5.4433,5.4753,5.5032,5.5107,5.529,5.5525,5.5695,5.5828,5.6079,5.6146,5.6351,5.6594,5.6749,5.7055,5.7126,5.7413,5.7432,5.7339,5.7352,5.7476,5.7462,5.7861,5.7919,5.7649,5.7651,5.7653,0,5.442,5.4605,5.4906,5.5051,5.5192,5.5422,5.5579,5.5734,5.5892,5.6163,5.6299,5.655,5.676,5.7141,5.7312,5.7545,5.7571,5.7694,5.7606,5.7567,5.7572,5.756,5.7578,5.7709,5.7711,5.7713,5.7714,0,5.4686,5.4762,5.499,5.5248,5.5434,5.5641,5.5848,5.5958,5.6147,5.6318,5.6573,5.6735,5.7051,5.7296,5.7545,5.7676,5.7725,5.774,5.7784,5.7754,5.7692,5.7727,5.7379,5.7731,5.7729,5.7728,5.7727,5.7727,5.4851,5.5019,5.5258,5.5507,5.568,5.587,5.6045,5.6201,5.6419,5.6695,5.6769,5.7034,5.7248,5.7589,5.7725,5.7928,5.7911,5.7973,5.7989,5.8003,5.8005,5.7659,5.7973,5.7972,5.7972,5.7972,5.7972,0,5.5122,5.528,5.5508,5.5798,5.5991,5.6028,5.6256,5.6413,5.6649,5.6849,5.7055,5.7343,5.7581,5.7769,5.8011,5.8136,5.8164,5.8194,5.8187,5.8216,5.8006,5.7945,5.8168,5.8168,5.8168,5.8168,5.8168,5.8168,5.5286,5.5573,5.5676,5.6045,5.6199,5.6467,5.6594,5.6767,5.6928,5.725,5.7451,5.7575,5.7769,5.8025,5.8241,5.8289,5.8373,5.8399,5.8451,5.8252,5.8231,5.821,5.8154,5.8416,5.8417,5.8645,5.8647,5.8648]}]]